Powrót do katalogu

FENGYUN 1C DEB

AktywnySSO
NORAD 30931·DEBRIS·🇨🇳 China

Wystrzelony May 10, 1999 z Taiyuan Satellite Launch Center

Loading…

Następne Przeloty (najbliższe 24 godziny)

TLE

ŚwieżeSource: Space-Track

Epoka: Sep 14, 2026, 03:44 UTC

1 30931U 99025AZV 26257.15571362  .00000437  00000-0  30448-3 0  9999
2 30931  99.1451 320.7343 0092133   1.3810  25.3781 14.02045712997849

Śledź FENGYUN 1C DEB w czasie rzeczywistym z AllMySat

Download on the App Store